EW7638 Weather Reports


Display with metric or nautical units.
time (UTC)temp
F
wind
direction
speed
MPH
gust
MPH
rain 1hr
in
rain 24hr
in
rain mn
in
humidity
%
barometer
mb
20181018235646 50 296 0.0 0.0 0.00 0.00 0.00 89 1028.8
20181018235146 50 296 0.0 0.0 0.00 0.00 0.00 89 1028.8
20181018234646 50 296 0.0 0.0 0.00 0.00 0.00 89 1028.8
20181018234147 50 296 0.0 0.0 0.00 0.00 0.00 88 1028.8
20181018233647 50 296 0.0 0.0 0.00 0.00 0.00 88 1028.8
20181018233145 51 296 0.0 0.0 0.00 0.00 0.00 87 1028.8
20181018232644 51 296 0.0 0.0 0.00 0.00 0.00 86 1028.7
20181018232143 51 296 0.0 0.0 0.00 0.00 0.00 85 1028.6
20181018231642 51 296 0.0 0.0 0.00 0.00 0.00 84 1028.6
20181018231142 52 296 0.0 0.0 0.00 0.00 0.00 84 1028.6
20181018230643 52 296 0.0 0.0 0.00 0.00 0.00 83 1028.6
20181018230142 53 295 0.0 0.0 0.00 0.00 0.00 82 1028.5
20181018225643 53 296 0.0 0.0 0.00 0.00 0.00 81 1028.4
20181018225143 53 296 0.0 0.0 0.00 0.00 0.00 80 1028.4
20181018224643 54 296 0.0 1.0 0.00 0.00 0.00 79 1028.3
20181018224144 54 296 0.0 1.0 0.00 0.00 0.00 78 1028.3
20181018223643 55 296 0.0 0.0 0.00 0.00 0.00 77 1028.2
20181018223142 55 296 0.0 0.0 0.00 0.00 0.00 76 1028.3
20181018222642 56 296 0.0 0.0 0.00 0.00 0.00 75 1028.2
20181018222142 56 296 0.0 0.0 0.00 0.00 0.00 72 1028.2
20181018221643 56 296 0.0 0.0 0.00 0.00 0.00 71 1028.1
20181018221143 57 296 0.0 0.0 0.00 0.00 0.00 69 1028.1
20181018220642 58 296 0.0 1.0 0.00 0.00 0.00 68 1028.1
20181018220142 58 296 0.0 1.0 0.00 0.00 0.00 67 1028.0
20181018215643 58 296 0.0 1.0 0.00 0.00 0.00 64 1028.0
20181018215142 59 296 0.0 1.0 0.00 0.00 0.00 62 1027.9
20181018214642 60 295 0.0 1.0 0.00 0.00 0.00 60 1027.9
20181018214142 60 296 0.0 1.0 0.00 0.00 0.00 56 1027.9
20181018213643 61 296 0.0 1.0 0.00 0.00 0.00 56 1027.9
20181018213143 61 295 0.0 1.0 0.00 0.00 0.00 53 1027.9
20181018212643 62 295 0.0 1.0 0.00 0.00 0.00 51 1027.9
20181018212142 63 293 0.0 1.0 0.00 0.00 0.00 50 1027.9
20181018211642 63 279 0.0 2.0 0.00 0.00 0.00 50 1027.8
20181018211142 64 281 0.0 2.0 0.00 0.00 0.00 51 1027.8
20181018210643 64 278 0.0 2.0 0.00 0.00 0.00 49 1027.8
20181018210142 64 278 0.0 2.0 0.00 0.00 0.00 48 1027.8
20181018205642 65 200 0.0 3.0 0.00 0.00 0.00 46 1027.8
20181018205142 64 117 1.0 3.0 0.00 0.00 0.00 49 1027.8
20181018204643 64 295 0.0 2.0 0.00 0.00 0.00 47 1027.8
20181018204143 65 280 0.0 2.0 0.00 0.00 0.00 48 1027.8
20181018203642 65 277 0.0 3.0 0.00 0.00 0.00 47 1027.8
20181018203143 65 187 0.0 3.0 0.00 0.00 0.00 43 1027.7
20181018202642 66 215 0.0 4.0 0.00 0.00 0.00 47 1027.7
20181018202141 66 250 1.0 8.0 0.00 0.00 0.00 45 1027.7
20181018201641 66 352 2.0 8.0 0.00 0.00 0.00 44 1027.7
20181018201141 66 121 2.0 8.0 0.00 0.00 0.00 45 1027.6
20181018200639 66 106 1.0 7.0 0.00 0.00 0.00 45 1027.6
20181018200138 67 132 1.0 4.0 0.00 0.00 0.00 43 1027.7
20181018195640 67 121 0.0 3.0 0.00 0.00 0.00 46 1027.7
20181018195138 66 162 0.0 2.0 0.00 0.00 0.00 49 1027.7
20181018194638 66 269 0.0 2.0 0.00 0.00 0.00 46 1027.7
20181018194138 66 303 0.0 2.0 0.00 0.00 0.00 46 1027.7
20181018193638 66 302 1.0 2.0 0.00 0.00 0.00 48 1027.8
20181018193136 66 140 1.0 6.0 0.00 0.00 0.00 46 1027.8
20181018192634 66 142 1.0 6.0 0.00 0.00 0.00 45 1027.8
20181018192134 67 103 0.0 3.0 0.00 0.00 0.00 48 1027.8
20181018191635 66 155 1.0 5.0 0.00 0.00 0.00 47 1027.9
20181018191134 66 129 1.0 5.0 0.00 0.00 0.00 45 1027.9
20181018190634 67 285 0.0 4.0 0.00 0.00 0.00 43 1027.9
20181018190134 67 143 0.0 1.0 0.00 0.00 0.00 45 1028.0
20181018185634 67 205 0.0 3.0 0.00 0.00 0.00 47 1028.0
20181018185134 67 131 1.0 6.0 0.00 0.00 0.00 47 1027.9
20181018184634 66 136 1.0 6.0 0.00 0.00 0.00 49 1028.0
20181018184133 66 302 1.0 4.0 0.00 0.00 0.00 48 1028.1
20181018183631 66 239 1.0 3.0 0.00 0.00 0.00 49 1028.1
20181018183130 65 137 1.0 6.0 0.00 0.00 0.00 50 1028.1
20181018182629 65 102 1.0 6.0 0.00 0.00 0.00 46 1028.2
20181018182128 65 327 1.0 5.0 0.00 0.00 0.00 48 1028.2
20181018181628 65 115 1.0 4.0 0.00 0.00 0.00 51 1028.3
20181018181130 65 309 2.0 6.0 0.00 0.00 0.00 49 1028.3
20181018180628 66 118 1.0 6.0 0.00 0.00 0.00 46 1028.4
20181018180126 66 266 0.0 1.0 0.00 0.00 0.00 47 1028.5
20181018175627 66 156 0.0 1.0 0.00 0.00 0.00 46 1028.5
20181018175126 66 210 0.0 2.0 0.00 0.00 0.00 48 1028.5
20181018174626 65 208 0.0 3.0 0.00 0.00 0.00 52 1028.6
20181018174126 65 122 1.0 6.0 0.00 0.00 0.00 50 1028.7
20181018173626 65 103 1.0 6.0 0.00 0.00 0.00 47 1028.8
20181018173125 65 155 1.0 6.0 0.00 0.00 0.00 50 1029.0
20181018172625 65 135 1.0 6.0 0.00 0.00 0.00 49 1029.1
20181018172124 64 93 2.0 5.0 0.00 0.00 0.00 51 1029.2
20181018171624 65 131 1.0 5.0 0.00 0.00 0.00 48 1029.2
20181018171124 65 73 1.0 4.0 0.00 0.00 0.00 49 1029.2
20181018170624 65 252 1.0 5.0 0.00 0.00 0.00 52 1029.3
20181018170125 64 130 1.0 5.0 0.00 0.00 0.00 51 1029.3
20181018165624 64 119 1.0 3.0 0.00 0.00 0.00 50 1029.4
20181018165124 64 278 1.0 3.0 0.00 0.00 0.00 50 1029.4
20181018164624 64 155 1.0 5.0 0.00 0.00 0.00 51 1029.4
20181018164124 64 176 1.0 5.0 0.00 0.00 0.00 49 1029.4
20181018163623 64 146 1.0 5.0 0.00 0.00 0.00 50 1029.5
20181018163122 64 290 1.0 5.0 0.00 0.00 0.00 52 1029.5
20181018162622 63 181 0.0 4.0 0.00 0.00 0.00 52 1029.7
20181018162122 63 184 1.0 4.0 0.00 0.00 0.00 51 1029.7
20181018161622 63 309 1.0 7.0 0.00 0.00 0.00 49 1029.8
20181018161122 62 302 1.0 7.0 0.00 0.00 0.00 51 1029.7
20181018160624 62 110 2.0 11.0 0.00 0.00 0.00 50 1029.8
20181018160123 63 70 1.0 11.0 0.00 0.00 0.00 49 1029.9
20181018155622 62 103 1.0 6.0 0.00 0.00 0.00 53 1029.9
20181018155122 62 242 1.0 3.0 0.00 0.00 0.00 51 1029.9
20181018154619 62 257 1.0 6.0 0.00 0.00 0.00 53 1030.2
20181018154119 62 117 1.0 6.0 0.00 0.00 0.00 52 1029.9
20181018153619 62 127 1.0 6.0 0.00 0.00 0.00 50 1030.0
20181018153120 62 304 0.0 5.0 0.00 0.00 0.00 53 1030.0
20181018152620 62 93 1.0 13.0 0.00 0.00 0.00 54 1030.0
20181018152120 61 225 1.0 13.0 0.00 0.00 0.00 52 1029.9
20181018151620 62 23 1.0 3.0 0.00 0.00 0.00 53 1029.9
20181018151119 62 110 1.0 3.0 0.00 0.00 0.00 53 1029.9
20181018150619 61 307 1.0 6.0 0.00 0.00 0.00 56 1030.0
20181018150120 61 287 1.0 6.0 0.00 0.00 0.00 54 1030.0
20181018145620 61 88 0.0 2.0 0.00 0.00 0.00 55 1030.2
20181018145120 61 297 0.0 3.0 0.00 0.00 0.00 56 1030.0
20181018144619 60 297 0.0 3.0 0.00 0.00 0.00 60 1029.9
20181018144118 60 198 0.0 4.0 0.00 0.00 0.00 59 1029.7
20181018143618 59 258 0.0 8.0 0.00 0.00 0.00 57 1029.8
20181018143118 59 172 1.0 8.0 0.00 0.00 0.00 57 1029.8
20181018142617 59 39 0.0 4.0 0.00 0.00 0.00 56 1029.8
20181018142117 59 198 1.0 14.0 0.00 0.00 0.00 59 1029.7
20181018141618 59 324 1.0 14.0 0.00 0.00 0.00 59 1029.7
20181018141116 59 143 1.0 8.0 0.00 0.00 0.00 57 1029.6
20181018140615 58 295 1.0 12.0 0.00 0.00 0.00 59 1029.7
20181018140115 58 146 1.0 12.0 0.00 0.00 0.00 58 1029.5
20181018135616 58 72 1.0 6.0 0.00 0.00 0.00 59 1029.7
20181018135116 58 30 1.0 6.0 0.00 0.00 0.00 59 1029.6
20181018134616 58 190 1.0 5.0 0.00 0.00 0.00 62 1029.7
20181018134116 58 77 1.0 7.0 0.00 0.00 0.00 60 1029.5
20181018133616 58 282 1.0 7.0 0.00 0.00 0.00 64 1029.6
20181018133115 58 127 1.0 7.0 0.00 0.00 0.00 62 1029.4
20181018132615 58 349 1.0 7.0 0.00 0.00 0.00 60 1029.3
20181018132116 58 90 0.0 6.0 0.00 0.00 0.00 63 1029.3
20181018131616 58 128 0.0 2.0 0.00 0.00 0.00 67 1029.2
20181018131116 58 162 0.0 4.0 0.00 0.00 0.00 66 1029.1
20181018130614 57 158 0.0 4.0 0.00 0.00 0.00 68 1029.1
20181018130114 57 129 0.0 3.0 0.00 0.00 0.00 71 1029.0
20181018125614 56 115 0.0 3.0 0.00 0.00 0.00 70 1029.1
20181018125112 56 132 0.0 1.0 0.00 0.00 0.00 73 1029.1
20181018124611 55 174 0.0 1.0 0.00 0.00 0.00 74 1028.9
20181018124109 55 130 0.0 4.0 0.00 0.00 0.00 76 1028.7
20181018123609 53 73 0.0 4.0 0.00 0.00 0.00 77 1028.7
20181018123109 53 212 0.0 1.0 0.00 0.00 0.00 81 1028.6
20181018122613 51 214 0.0 1.0 0.00 0.00 0.00 82 1028.5
20181018122110 51 118 0.0 1.0 0.00 0.00 0.00 84 1028.5
20181018121610 50 118 0.0 1.0 0.00 0.00 0.00 85 1028.3
20181018121109 49 118 0.0 1.0 0.00 0.00 0.00 85 1028.2
20181018120609 49 118 0.0 0.0 0.00 0.00 0.00 85 1028.1
20181018120110 49 9 0.0 3.0 0.00 0.00 0.00 86 1028.0
20181018115610 49 9 0.0 4.0 0.00 0.00 0.00 86 1027.9
20181018115110 49 94 0.0 4.0 0.00 0.00 0.00 87 1027.8
20181018114610 49 278 0.0 0.0 0.00 0.00 0.00 87 1027.7
20181018114110 49 278 0.0 0.0 0.00 0.00 0.00 88 1027.6
20181018113610 49 277 0.0 0.0 0.00 0.00 0.00 87 1027.5
20181018113110 49 277 0.0 0.0 0.00 0.00 0.00 88 1027.5
20181018112610 49 276 0.0 0.0 0.00 0.00 0.00 87 1027.5
20181018112109 49 276 0.0 0.0 0.00 0.00 0.00 86 1027.5
20181018111609 49 276 0.0 0.0 0.00 0.00 0.00 85 1027.5
20181018111109 49 274 0.0 1.0 0.00 0.00 0.00 85 1027.5
20181018110609 49 275 0.0 1.0 0.00 0.00 0.00 86 1027.4
20181018110109 49 274 0.0 1.0 0.00 0.00 0.00 84 1027.5
20181018105609 50 274 0.0 0.0 0.00 0.00 0.00 83 1027.3
20181018105109 50 274 0.0 0.0 0.00 0.00 0.00 82 1027.1
20181018104610 50 274 0.0 0.0 0.00 0.00 0.00 81 1027.0
20181018104110 51 274 0.0 0.0 0.00 0.00 0.00 81 1026.9
20181018103610 51 274 0.0 1.0 0.00 0.00 0.00 81 1026.9
20181018103110 51 274 0.0 1.0 0.00 0.00 0.00 81 1026.8
20181018102609 51 274 0.0 0.0 0.00 0.00 0.00 81 1026.6
20181018102109 51 274 0.0 0.0 0.00 0.00 0.00 80 1026.5
20181018101609 51 274 0.0 0.0 0.00 0.00 0.00 81 1026.6
20181018101109 51 274 0.0 0.0 0.00 0.00 0.00 80 1026.5
20181018100610 52 274 0.0 0.0 0.00 0.00 0.00 80 1026.3
20181018100109 52 274 0.0 0.0 0.00 0.00 0.00 80 1026.1
20181018095610 52 274 0.0 0.0 0.00 0.00 0.00 80 1026.1
20181018095110 52 274 0.0 0.0 0.00 0.00 0.00 79 1026.2
20181018094609 52 274 0.0 0.0 0.00 0.00 0.00 79 1026.1
20181018094110 52 279 0.0 1.0 0.00 0.00 0.00 80 1026.0
20181018093609 52 276 0.0 1.0 0.00 0.00 0.00 80 1026.2
20181018093109 53 276 0.0 1.0 0.00 0.00 0.00 79 1026.1
20181018092609 53 273 0.0 1.0 0.00 0.00 0.00 80 1026.1
20181018092109 53 269 0.0 0.0 0.00 0.00 0.00 79 1026.1
20181018091610 53 269 0.0 1.0 0.00 0.00 0.00 79 1026.1
20181018091110 53 269 0.0 1.0 0.00 0.00 0.00 79 1025.8
20181018090610 53 269 0.0 0.0 0.00 0.00 0.00 78 1025.9
20181018090110 53 269 0.0 0.0 0.00 0.00 0.00 78 1025.8
20181018085610 54 269 0.0 0.0 0.00 0.00 0.00 77 1025.7
20181018085109 54 270 0.0 1.0 0.00 0.00 0.00 76 1025.6
20181018084610 54 270 0.0 1.0 0.00 0.00 0.00 76 1025.5
20181018084110 54 267 0.0 1.0 0.00 0.00 0.00 76 1025.4
20181018083612 54 268 0.0 1.0 0.00 0.00 0.00 77 1025.3
20181018083110 54 126 0.0 1.0 0.00 0.00 0.00 77 1025.2
20181018082608 54 126 0.0 1.0 0.00 0.00 0.00 77 1025.0
20181018082107 54 126 0.0 1.0 0.00 0.00 0.00 76 1025.0
20181018081607 54 126 0.0 0.0 0.00 0.00 0.00 76 1025.1
20181018081107 54 126 0.0 1.0 0.00 0.01 0.00 75 1025.0
20181018080607 54 126 0.0 1.0 0.00 0.01 0.00 74 1025.0
20181018080107 54 126 0.0 0.0 0.00 0.01 0.00 74 1025.1
20181018075608 55 126 0.0 0.0 0.00 0.01 0.00 74 1025.0
20181018075107 55 126 0.0 0.0 0.00 0.01 0.00 73 1024.9
20181018074607 55 126 0.0 1.0 0.00 0.01 0.00 72 1024.8
20181018074107 55 126 0.0 1.0 0.00 0.01 0.00 72 1024.9
20181018073607 55 126 0.0 0.0 0.00 0.01 0.00 71 1024.8
20181018073105 55 126 0.0 1.0 0.00 0.01 0.00 71 1024.7
20181018072606 56 126 0.0 1.0 0.00 0.01 0.00 70 1024.7
20181018072105 56 126 0.0 1.0 0.00 0.01 0.00 71 1024.5
20181018071606 56 126 0.0 1.0 0.00 0.01 0.00 70 1024.6
20181018071105 56 126 0.0 1.0 0.00 0.01 0.00 71 1024.6
20181018070605 56 126 0.0 1.0 0.00 0.01 0.00 71 1024.4
20181018070103 56 126 0.0 1.0 0.00 0.01 0.00 71 1024.6
20181018065601 56 126 0.0 1.0 0.00 0.01 0.00 70 1024.4
20181018065101 56 126 0.0 1.0 0.00 0.01 0.00 71 1024.4
20181018064601 56 350 0.0 1.0 0.00 0.01 0.00 71 1024.3
20181018064102 55 6 0.0 2.0 0.00 0.01 0.00 73 1024.2
20181018063559 55 9 0.0 2.0 0.00 0.01 0.00 74 1024.2
20181018063100 55 67 0.0 1.0 0.00 0.01 0.00 77 1024.1
20181018062559 55 328 0.0 1.0 0.00 0.01 0.00 77 1024.2
20181018062100 55 328 0.0 1.0 0.00 0.01 0.00 76 1024.2
20181018061558 55 328 0.0 1.0 0.00 0.01 0.00 76 1024.2
20181018061059 55 328 0.0 0.0 0.00 0.01 0.00 76 1024.1
20181018060558 55 328 0.0 1.0 0.00 0.01 0.00 76 1024.0
20181018060057 55 328 0.0 1.0 0.00 0.01 0.00 75 1024.0
20181018055557 55 328 0.0 0.0 0.00 0.01 0.00 74 1024.0
20181018055057 56 328 0.0 0.0 0.00 0.01 0.00 74 1024.0
20181018054557 56 327 0.0 1.0 0.00 0.01 0.00 74 1024.0
20181018054057 56 327 0.0 1.0 0.00 0.01 0.00 74 1023.9
20181018053558 55 333 0.0 1.0 0.00 0.01 0.00 76 1024.0
20181018053057 55 332 0.0 0.0 0.00 0.01 0.00 76 1024.0
20181018052557 56 332 0.0 0.0 0.00 0.01 0.00 74 1023.9
20181018052057 56 332 0.0 0.0 0.00 0.01 0.00 74 1023.8
20181018051559 56 332 0.0 1.0 0.00 0.01 0.00 73 1023.8
20181018051055 56 332 0.0 1.0 0.00 0.01 0.00 74 1023.7
20181018050555 56 333 0.0 1.0 0.00 0.01 0.00 73 1023.7
20181018050055 56 186 0.0 3.0 0.00 0.01 0.00 74 1023.7
20181018045555 56 269 0.0 3.0 0.00 0.01 0.00 73 1023.6
20181018045055 56 302 0.0 1.0 0.00 0.01 0.00 74 1023.6
20181018044555 56 306 0.0 2.0 0.00 0.01 0.00 75 1023.7
20181018044055 56 306 0.0 2.0 0.00 0.01 0.00 74 1023.7
20181018043555 56 198 0.0 2.0 0.00 0.01 0.00 75 1023.6
20181018043055 56 199 0.0 2.0 0.00 0.01 0.00 76 1023.6
20181018042555 56 326 0.0 2.0 0.00 0.01 0.00 75 1023.5
20181018042053 55 291 0.0 2.0 0.00 0.01 0.00 79 1023.5
20181018041552 55 16 0.0 2.0 0.00 0.01 0.00 83 1023.5
20181018041053 54 107 0.0 1.0 0.00 0.01 0.00 85 1023.4
20181018040553 53 273 0.0 1.0 0.00 0.01 0.00 89 1023.3
20181018040053 53 304 0.0 0.0 0.00 0.01 0.00 90 1023.2
20181018035551 53 302 0.0 0.0 0.00 0.01 0.01 90 1023.3
20181018035053 53 302 0.0 0.0 0.00 0.01 0.01 90 1023.4
20181018034551 53 302 0.0 0.0 0.00 0.01 0.01 91 1023.3
20181018034051 53 302 0.0 0.0 0.00 0.01 0.01 91 1023.1
20181018033551 53 302 0.0 0.0 0.00 0.01 0.01 91 1023.1
20181018033051 53 301 0.0 0.0 0.00 0.01 0.01 91 1023.1
20181018032551 53 301 0.0 0.0 0.00 0.01 0.01 91 1023.2
20181018032051 53 301 0.0 0.0 0.00 0.01 0.01 91 1023.1
20181018031551 53 301 0.0 0.0 0.00 0.01 0.01 91 1023.0
20181018031052 54 301 0.0 0.0 0.00 0.01 0.01 91 1022.9
20181018030549 54 301 0.0 0.0 0.00 0.01 0.01 91 1022.9
20181018030049 54 301 0.0 0.0 0.00 0.01 0.01 91 1022.8
20181018025549 54 301 0.0 0.0 0.00 0.01 0.01 91 1022.9
20181018025049 54 301 0.0 0.0 0.00 0.01 0.01 90 1022.6
20181018024549 55 301 0.0 0.0 0.00 0.01 0.01 91 1022.7
20181018024049 55 301 0.0 0.0 0.00 0.01 0.01 91 1022.7
20181018023549 55 301 0.0 0.0 0.00 0.01 0.01 90 1022.7
20181018023049 55 301 0.0 0.0 0.00 0.01 0.01 89 1022.7
20181018022549 55 301 0.0 0.0 0.00 0.01 0.01 89 1022.6
20181018022048 55 301 0.0 0.0 0.00 0.02 0.01 90 1022.6
20181018021547 54 301 0.0 0.0 0.00 0.02 0.01 91 1022.5
20181018021047 54 301 0.0 0.0 0.00 0.02 0.01 92 1022.5
20181018020549 55 301 0.0 0.0 0.00 0.02 0.01 93 1022.3
20181018020047 55 301 0.0 0.0 0.00 0.02 0.01 94 1022.4
20181018015545 55 301 0.0 0.0 0.00 0.03 0.01 94 1022.3
20181018015045 55 301 0.0 0.0 0.00 0.03 0.01 94 1022.2
20181018014545 55 301 0.0 0.0 0.00 0.04 0.01 94 1022.2
20181018014044 55 301 0.0 0.0 0.00 0.04 0.01 94 1022.1
20181018013545 55 301 0.0 0.0 0.00 0.04 0.01 94 1022.0
20181018013045 55 301 0.0 0.0 0.00 0.04 0.01 94 1021.8
20181018012543 55 301 0.0 0.0 0.00 0.04 0.01 94 1021.8
20181018012043 55 301 0.0 0.0 0.00 0.04 0.01 94 1021.8
20181018011543 56 301 0.0 0.0 0.00 0.04 0.01 93 1021.7
20181018011043 56 301 0.0 0.0 0.00 0.04 0.01 93 1021.6
20181018010542 56 302 0.0 0.0 0.00 0.04 0.01 93 1021.4
20181018010043 56 302 0.0 0.0 0.00 0.04 0.01 93 1021.3
20181018005543 56 302 0.0 0.0 0.00 0.04 0.01 93 1021.2
20181018005043 56 302 0.0 0.0 0.00 0.04 0.01 94 1021.1
20181018004543 56 301 0.0 0.0 0.00 0.04 0.01 94 1021.1
20181018004042 56 301 0.0 0.0 0.00 0.04 0.01 94 1020.9
20181018003541 56 301 0.0 0.0 0.00 0.04 0.01 94 1020.8
20181018003043 57 302 0.0 0.0 0.00 0.04 0.01 93 1020.7
20181018002541 57 302 0.0 0.0 0.00 0.04 0.01 93 1020.6
20181018002040 57 301 0.0 0.0 0.00 0.04 0.01 93 1020.6
20181018001540 57 301 0.0 1.0 0.00 0.04 0.01 93 1020.6
20181018001041 57 302 0.0 1.0 0.00 0.04 0.01 93 1020.6
20181018000542 58 302 0.0 0.0 0.00 0.04 0.01 93 1020.6
20181018000041 58 302 0.0 0.0 0.00 0.04 0.01 93 1020.5